QPF
0.11 0.13 0.13 0.13 0.11 0.10 0.09 0.08 0.07 0.07 0.07 0.07 0.07 0.08 0.08 0.08 0.08 0.08 0.07 0.06 0.04 0.03 0.03 0.02 0.01 0.01 0.00 0.00 0.00 0.00 0.00 0.00 0.00 0.00 0.00 0.00 0.00 0.00 0.00 0.00 0.00 0.00 0.00
0.07 0.08 0.09 0.09 0.08 0.07 0.07 0.06 0.05 0.04 0.04 0.04 0.04 0.04 0.04 0.04 0.03 0.02 0.02 0.02 0.01 0.01 0.01 0.01 0.01 0.00 0.00 0.00 0.00 0.00 0.00 0.00 0.00 0.00 0.00 0.00 0.00 0.00 0.00 0.00 0.00 0.00 0.00
0.05 0.04 0.04 0.04 0.04 0.04 0.04 0.03 0.02 0.01 0.01 0.01 0.01 0.01 0.01 0.01 0.01 0.01 0.01 0.00 0.00 0.00 0.00 0.00 0.00 0.00 0.00 0.00 0.00 0.00 0.00 0.00 0.00 0.00 0.00 0.00 0.00 0.00 0.00 0.00 0.00 0.00 0.00
0.03 0.03 0.03 0.03 0.02 0.02 0.02 0.01 0.01 0.00 0.01 0.01 0.01 0.01 0.01 0.00 0.00 0.00 0.00 0.00 0.00 0.00 0.00 0.00 0.00 0.00 0.00 0.00 0.00 0.00 0.00 0.00 0.00 0.00 0.00 0.00 0.00 0.00 0.00 0.00 0.00 0.00 0.00
0.03 0.02 0.02 0.02 0.02 0.01 0.01 0.01 0.01 0.00 0.00 0.01 0.00 0.00 0.00 0.00 0.00 0.00 0.00 0.00 0.00 0.00 0.00 0.00 0.00 0.00 0.01 0.01 0.01 0.00 0.00 0.00 0.00 0.00 0.00 0.00 0.00 0.00 0.00 0.00 0.00 0.00 0.00
0.04 0.04 0.04 0.04 0.03 0.03 0.02 0.02 0.01 0.01 0.00 0.00 0.00 0.00 0.00 0.00 0.00 0.00 0.00 0.00 0.00 0.00 0.00 0.00 0.00 0.00 0.00 0.00 0.00 0.00 0.00 0.00 0.00 0.00 0.00 0.00 0.00 0.00 0.00 0.00 0.01 0.00 0.00
0.03 0.03 0.03 0.02 0.02 0.02 0.02 0.02 0.01 0.01 0.00 0.00 0.00 0.00 0.00 0.00 0.00 0.00 0.00 0.00 0.00 0.00 0.00 0.00 0.00 0.00 0.00 0.00 0.00 0.00 0.00 0.00 0.00 0.00 0.00 0.00 0.00 0.00 0.00 0.01 0.01 0.01 0.01
0.02 0.02 0.01 0.01 0.01 0.01 0.01 0.01 0.00 0.00 0.00 0.00 0.00 0.00 0.00 0.00 0.00 0.00 0.00 0.00 0.00 0.00 0.00 0.00 0.00 0.00 0.00 0.00 0.00 0.00 0.00 0.00 0.00 0.00 0.00 0.00 0.00 0.00 0.01 0.01 0.01 0.02 0.01
0.01 0.01 0.01 0.01 0.01 0.01 0.00 0.00 0.00 0.00 0.00 0.00 0.00 0.00 0.00 0.00 0.00 0.00 0.00 0.00 0.00 0.00 0.00 0.00 0.00 0.00 0.00 0.00 0.00 0.00 0.00 0.00 0.00 0.00 0.00 0.00 0.01 0.01 0.01 0.01 0.02 0.02 0.02
0.01 0.01 0.01 0.00 0.00 0.00 0.00 0.00 0.00 0.00 0.00 0.00 0.00 0.00 0.00 0.00 0.00 0.00 0.00 0.00 0.00 0.00 0.00 0.00 0.00 0.00 0.00 0.01 0.01 0.01 0.01 0.01 0.01 0.01 0.01 0.01 0.01 0.02 0.02 0.01 0.02 0.02 0.02
0.01 0.01 0.00 0.00 0.00 0.00 0.00 0.00 0.00 0.00 0.00 0.00 0.00 0.00 0.00 0.00 0.00 0.00 0.00 0.00 0.00 0.00 0.00 0.00 0.00 0.00 0.01 0.01 0.01 0.01 0.01 0.01 0.01 0.02 0.02 0.01 0.02 0.02 0.02 0.01 0.01 0.01 0.01
0.00 0.00 0.00 0.00 0.00 0.00 0.00 0.00 0.00 0.00 0.00 0.00 0.00 0.00 0.00 0.00 0.00 0.00 0.00 0.00 0.00 0.00 0.00 0.00 0.00 0.01 0.01 0.01 0.01 0.02 0.02 0.01 0.01 0.02 0.02 0.02 0.02 0.01 0.01 0.00 0.00 0.00 0.00
0.00 0.00 0.00 0.00 0.00 0.00 0.00 0.00 0.00 0.00 0.00 0.00 0.00 0.00 0.00 0.00 0.00 0.00 0.00 0.00 0.00 0.00 0.00 0.00 0.01 0.01 0.01 0.01 0.01 0.01 0.02 0.01 0.01 0.02 0.02 0.02 0.01 0.00 0.00 0.00 0.00 0.00 0.00
0.00 0.00 0.00 0.00 0.00 0.00 0.00 0.00 0.00 0.00 0.00 0.00 0.00 0.00 0.00 0.00 0.00 0.00 0.00 0.00 0.00 0.01 0.01 0.01 0.01 0.01 0.01 0.01 0.01 0.01 0.01 0.01 0.01 0.01 0.01 0.01 0.01 0.00 0.00 0.00 0.00 0.00 0.00
0.00 0.00 0.00 0.00 0.00 0.00 0.00 0.00 0.00 0.00 0.00 0.00 0.00 0.00 0.00 0.00 0.00 0.00 0.00 0.00 0.01 0.01 0.01 0.01 0.01 0.01 0.02 0.02 0.01 0.01 0.01 0.01 0.01 0.00 0.01 0.01 0.00 0.00 0.00 0.00 0.00 0.00 0.00
0.00 0.00 0.00 0.00 0.00 0.00 0.00 0.00 0.00 0.00 0.00 0.00 0.00 0.00 0.00 0.00 0.00 0.01 0.01 0.01 0.01 0.01 0.02 0.01 0.01 0.02 0.02 0.03 0.02 0.01 0.01 0.01 0.01 0.00 0.00 0.00 0.01 0.01 0.00 0.00 0.00 0.00 0.00
0.00 0.00 0.00 0.00 0.00 0.00 0.00 0.00 0.00 0.00 0.00 0.00 0.00 0.00 0.00 0.00 0.01 0.01 0.01 0.01 0.01 0.01 0.01 0.01 0.01 0.02 0.02 0.02 0.01 0.01 0.01 0.00 0.00 0.00 0.00 0.00 0.00 0.01 0.01 0.00 0.00 0.00 0.00
0.00 0.00 0.00 0.00 0.00 0.00 0.00 0.00 0.00 0.00 0.00 0.00 0.00 0.00 0.00 0.00 0.00 0.01 0.01 0.01 0.01 0.01 0.01 0.01 0.01 0.02 0.01 0.01 0.00 0.00 0.00 0.00 0.00 0.00 0.00 0.00 0.00 0.00 0.00 0.00 0.00 0.00 0.00
0.00 0.00 0.00 0.00 0.00 0.00 0.00 0.00 0.00 0.00 0.00 0.00 0.00 0.00 0.00 0.00 0.00 0.01 0.01 0.01 0.00 0.01 0.01 0.01 0.01 0.01 0.00 0.00 0.00 0.00 0.00 0.00 0.00 0.00 0.00 0.00 0.00 0.00 0.00 0.00 0.00 0.00 0.00
0.00 0.00 0.00 0.00 0.00 0.00 0.00 0.00 0.00 0.00 0.00 0.00 0.00 0.00 0.00 0.01 0.01 0.01 0.01 0.01 0.01 0.01 0.01 0.01 0.01 0.00 0.00 0.00 0.00 0.00 0.00 0.00 0.00 0.00 0.00 0.00 0.00 0.00 0.00 0.00 0.00 0.00 0.00
0.00 0.00 0.00 0.00 0.00 0.00 0.00 0.00 0.00 0.00 0.00 0.00 0.00 0.00 0.01 0.01 0.01 0.01 0.01 0.01 0.01 0.01 0.01 0.00 0.00 0.00 0.00 0.00 0.00 0.00 0.00 0.00 0.00 0.00 0.00 0.00 0.00 0.00 0.00 0.00 0.00 0.00 0.00
0.00 0.00 0.00 0.00 0.00 0.00 0.00 0.00 0.00 0.00 0.00 0.00 0.00 0.00 0.01 0.01 0.01 0.00 0.00 0.00 0.00 0.00 0.00 0.00 0.00 0.00 0.00 0.00 0.00 0.00 0.00 0.00 0.00 0.00 0.00 0.00 0.00 0.00 0.00 0.00 0.00 0.00 0.00
0.00 0.00 0.00 0.00 0.00 0.00 0.00 0.00 0.00 0.00 0.00 0.00 0.00 0.00 0.00 0.00 0.00 0.00 0.00 0.00 0.00 0.00 0.00 0.00 0.00 0.00 0.00 0.00 0.00 0.00 0.00 0.00 0.00 0.00 0.00 0.00 0.00 0.00 0.00 0.00 0.00 0.00 0.00
0.00 0.00 0.00 0.00 0.00 0.00 0.00 0.00 0.00 0.00 0.00 0.00 0.00 0.00 0.00 0.00 0.00 0.00 0.00 0.00 0.00 0.00 0.00 0.00 0.00 0.00 0.00 0.00 0.00 0.00 0.00 0.00 0.00 0.00 0.00 0.00 0.00 0.00 0.00 0.00 0.00 0.00 0.00
0.00 0.00 0.00 0.00 0.00 0.00 0.00 0.00 0.00 0.00 0.00 0.00 0.00 0.00 0.00 0.00 0.00 0.00 0.00 0.00 0.00 0.00 0.00 0.00 0.00 0.00 0.00 0.00 0.00 0.00 0.00 0.00 0.00 0.00 0.00 0.00 0.00 0.00 0.00 0.00 0.00 0.00 0.00
0.00 0.00 0.00 0.00 0.00 0.00 0.00 0.00 0.00 0.00 0.00 0.00 0.00 0.00 0.00 0.00 0.00 0.00 0.00 0.00 0.00 0.00 0.00 0.00 0.00 0.00 0.00 0.00 0.00 0.00 0.00 0.00 0.00 0.00 0.00 0.00 0.00 0.00 0.00 0.00 0.00 0.00 0.00
MSLP
1019.39 1019.64 1019.98 1020.40 1020.86 1021.32 1021.76 1022.15 1022.49 1022.77 1023.00 1023.20 1023.36 1023.50 1023.63 1023.74 1023.85 1023.95 1024.04 1024.10 1024.14 1024.16 1024.14 1024.11 1024.05 1023.98 1023.90 1023.82 1023.74 1023.67 1023.61 1023.55 1023.48 1023.38 1023.26 1023.08 1022.86 1022.58 1022.25 1021.88 1021.49 1021.09 1020.70
1020.93 1021.18 1021.50 1021.85 1022.22 1022.59 1022.92 1023.22 1023.48 1023.69 1023.86 1024.01 1024.13 1024.24 1024.34 1024.43 1024.50 1024.55 1024.58 1024.59 1024.56 1024.51 1024.43 1024.32 1024.20 1024.07 1023.94 1023.82 1023.72 1023.63 1023.55 1023.48 1023.40 1023.29 1023.15 1022.97 1022.72 1022.42 1022.07 1021.68 1021.27 1020.84 1020.42
1022.33 1022.60 1022.89 1023.19 1023.48 1023.75 1023.98 1024.17 1024.33 1024.46 1024.57 1024.67 1024.75 1024.83 1024.89 1024.95 1024.99 1025.00 1024.98 1024.93 1024.84 1024.72 1024.58 1024.41 1024.23 1024.05 1023.89 1023.74 1023.61 1023.51 1023.42 1023.33 1023.24 1023.13 1022.98 1022.77 1022.51 1022.20 1021.83 1021.42 1020.98 1020.53 1020.09
1023.56 1023.84 1024.11 1024.36 1024.57 1024.74 1024.87 1024.96 1025.03 1025.08 1025.12 1025.17 1025.21 1025.26 1025.30 1025.33 1025.33 1025.31 1025.25 1025.16 1025.02 1024.84 1024.64 1024.42 1024.20 1023.98 1023.77 1023.60 1023.45 1023.33 1023.22 1023.13 1023.02 1022.89 1022.72 1022.50 1022.23 1021.90 1021.52 1021.09 1020.65 1020.18 1019.72
1024.57 1024.86 1025.10 1025.30 1025.44 1025.52 1025.56 1025.57 1025.56 1025.54 1025.53 1025.53 1025.54 1025.56 1025.58 1025.59 1025.58 1025.53 1025.44 1025.31 1025.13 1024.92 1024.67 1024.41 1024.14 1023.89 1023.65 1023.45 1023.27 1023.12 1022.99 1022.87 1022.74 1022.59 1022.40 1022.16 1021.88 1021.53 1021.15 1020.72 1020.27 1019.81 1019.35
1025.38 1025.65 1025.86 1026.00 1026.07 1026.09 1026.05 1025.99 1025.92 1025.86 1025.81 1025.78 1025.77 1025.78 1025.79 1025.79 1025.76 1025.70 1025.59 1025.44 1025.23 1024.98 1024.71 1024.41 1024.11 1023.82 1023.55 1023.31 1023.09 1022.91 1022.74 1022.59 1022.42 1022.24 1022.02 1021.77 1021.46 1021.12 1020.73 1020.32 1019.88 1019.43 1018.98
1025.99 1026.22 1026.39 1026.48 1026.50 1026.46 1026.37 1026.27 1026.17 1026.08 1026.01 1025.97 1025.96 1025.96 1025.96 1025.96 1025.92 1025.85 1025.72 1025.55 1025.33 1025.06 1024.76 1024.44 1024.11 1023.78 1023.47 1023.19 1022.93 1022.70 1022.49 1022.28 1022.08 1021.85 1021.61 1021.33 1021.02 1020.68 1020.31 1019.91 1019.50 1019.08 1018.65
1026.42 1026.61 1026.72 1026.77 1026.74 1026.67 1026.57 1026.46 1026.35 1026.26 1026.19 1026.16 1026.15 1026.15 1026.15 1026.13 1026.08 1026.00 1025.86 1025.67 1025.43 1025.15 1024.82 1024.48 1024.12 1023.76 1023.41 1023.08 1022.78 1022.49 1022.23 1021.97 1021.72 1021.46 1021.19 1020.90 1020.59 1020.25 1019.90 1019.53 1019.16 1018.77 1018.38
1026.72 1026.84 1026.91 1026.92 1026.87 1026.80 1026.70 1026.60 1026.52 1026.45 1026.40 1026.38 1026.38 1026.37 1026.36 1026.33 1026.27 1026.16 1026.00 1025.79 1025.53 1025.22 1024.88 1024.51 1024.12 1023.73 1023.35 1022.98 1022.62 1022.29 1021.97 1021.67 1021.37 1021.09 1020.79 1020.49 1020.19 1019.87 1019.55 1019.21 1018.87 1018.52 1018.17
1026.90 1026.97 1027.00 1026.98 1026.94 1026.89 1026.82 1026.76 1026.72 1026.69 1026.68 1026.67 1026.67 1026.66 1026.62 1026.56 1026.46 1026.32 1026.12 1025.88 1025.60 1025.26 1024.90 1024.51 1024.10 1023.68 1023.26 1022.85 1022.46 1022.08 1021.72 1021.38 1021.06 1020.75 1020.45 1020.15 1019.85 1019.55 1019.26 1018.95 1018.65 1018.33 1018.01
1027.00 1027.03 1027.03 1027.02 1027.00 1026.98 1026.97 1026.97 1026.98 1027.00 1027.02 1027.02 1027.02 1026.98 1026.91 1026.81 1026.65 1026.46 1026.22 1025.93 1025.61 1025.25 1024.86 1024.45 1024.02 1023.58 1023.14 1022.70 1022.28 1021.88 1021.49 1021.13 1020.79 1020.47 1020.16 1019.86 1019.58 1019.30 1019.03 1018.75 1018.47 1018.18 1017.88
1027.04 1027.04 1027.04 1027.05 1027.08 1027.12 1027.17 1027.24 1027.30 1027.36 1027.40 1027.42 1027.39 1027.32 1027.20 1027.03 1026.82 1026.56 1026.26 1025.93 1025.56 1025.17 1024.76 1024.33 1023.89 1023.44 1022.98 1022.54 1022.10 1021.69 1021.29 1020.92 1020.57 1020.24 1019.93 1019.65 1019.37 1019.10 1018.84 1018.57 1018.30 1018.02 1017.73
1027.04 1027.04 1027.06 1027.11 1027.19 1027.29 1027.41 1027.54 1027.66 1027.75 1027.80 1027.81 1027.75 1027.63 1027.45 1027.22 1026.93 1026.61 1026.25 1025.87 1025.46 1025.04 1024.61 1024.17 1023.72 1023.27 1022.82 1022.38 1021.94 1021.53 1021.13 1020.75 1020.40 1020.07 1019.77 1019.48 1019.20 1018.93 1018.66 1018.39 1018.12 1017.84 1017.55
1027.01 1027.04 1027.09 1027.19 1027.33 1027.50 1027.68 1027.86 1028.01 1028.12 1028.17 1028.15 1028.05 1027.88 1027.64 1027.33 1026.98 1026.60 1026.19 1025.76 1025.33 1024.89 1024.45 1024.01 1023.57 1023.13 1022.69 1022.26 1021.83 1021.42 1021.03 1020.66 1020.30 1019.97 1019.65 1019.34 1019.05 1018.76 1018.47 1018.18 1017.89 1017.60 1017.30
1027.00 1027.06 1027.16 1027.32 1027.51 1027.73 1027.96 1028.17 1028.33 1028.44 1028.47 1028.42 1028.27 1028.05 1027.75 1027.39 1026.98 1026.55 1026.10 1025.65 1025.20 1024.76 1024.33 1023.90 1023.48 1023.05 1022.63 1022.22 1021.81 1021.41 1021.02 1020.64 1020.27 1019.92 1019.57 1019.24 1018.91 1018.59 1018.27 1017.95 1017.63 1017.32 1017.00
1027.01 1027.12 1027.28 1027.48 1027.72 1027.97 1028.22 1028.44 1028.60 1028.69 1028.69 1028.60 1028.41 1028.13 1027.79 1027.38 1026.95 1026.49 1026.03 1025.58 1025.14 1024.71 1024.29 1023.89 1023.49 1023.10 1022.70 1022.30 1021.90 1021.51 1021.11 1020.72 1020.33 1019.94 1019.56 1019.18 1018.80 1018.43 1018.06 1017.70 1017.35 1017.02 1016.69
1027.07 1027.23 1027.43 1027.67 1027.94 1028.21 1028.46 1028.67 1028.81 1028.86 1028.83 1028.69 1028.47 1028.16 1027.79 1027.37 1026.92 1026.47 1026.02 1025.58 1025.17 1024.77 1024.39 1024.02 1023.65 1023.28 1022.91 1022.53 1022.13 1021.73 1021.32 1020.90 1020.47 1020.04 1019.60 1019.17 1018.73 1018.30 1017.89 1017.48 1017.10 1016.75 1016.42
1027.18 1027.38 1027.62 1027.88 1028.16 1028.43 1028.66 1028.84 1028.95 1028.98 1028.90 1028.74 1028.49 1028.16 1027.79 1027.37 1026.94 1026.51 1026.10 1025.70 1025.32 1024.96 1024.62 1024.29 1023.95 1023.61 1023.25 1022.88 1022.48 1022.07 1021.64 1021.18 1020.71 1020.22 1019.72 1019.23 1018.73 1018.24 1017.78 1017.34 1016.93 1016.57 1016.24
1027.34 1027.56 1027.82 1028.09 1028.36 1028.62 1028.83 1028.97 1029.05 1029.04 1028.94 1028.75 1028.49 1028.17 1027.81 1027.42 1027.03 1026.64 1026.27 1025.92 1025.59 1025.28 1024.98 1024.68 1024.37 1024.05 1023.70 1023.33 1022.93 1022.49 1022.03 1021.53 1021.01 1020.47 1019.91 1019.35 1018.80 1018.27 1017.76 1017.30 1016.88 1016.51 1016.19
1027.50 1027.74 1028.00 1028.26 1028.52 1028.75 1028.93 1029.04 1029.09 1029.05 1028.94 1028.75 1028.50 1028.21 1027.88 1027.53 1027.19 1026.85 1026.54 1026.24 1025.96 1025.69 1025.42 1025.14 1024.86 1024.55 1024.20 1023.82 1023.40 1022.94 1022.45 1021.91 1021.34 1020.75 1020.15 1019.54 1018.95 1018.38 1017.85 1017.37 1016.94 1016.58 1016.28
1027.63 1027.87 1028.12 1028.36 1028.60 1028.80 1028.95 1029.04 1029.07 1029.03 1028.92 1028.75 1028.52 1028.26 1027.98 1027.69 1027.40 1027.12 1026.85 1026.60 1026.36 1026.12 1025.88 1025.62 1025.34 1025.03 1024.68 1024.29 1023.85 1023.36 1022.83 1022.26 1021.66 1021.04 1020.40 1019.77 1019.15 1018.56 1018.02 1017.54 1017.13 1016.77 1016.49
1027.70 1027.91 1028.14 1028.36 1028.57 1028.75 1028.88 1028.96 1028.99 1028.95 1028.86 1028.72 1028.54 1028.33 1028.10 1027.86 1027.63 1027.40 1027.18 1026.96 1026.75 1026.53 1026.29 1026.04 1025.76 1025.44 1025.07 1024.66 1024.20 1023.69 1023.14 1022.55 1021.92 1021.28 1020.63 1019.98 1019.36 1018.78 1018.25 1017.79 1017.39 1017.06 1016.79
1027.67 1027.85 1028.05 1028.24 1028.43 1028.59 1028.72 1028.80 1028.84 1028.83 1028.77 1028.67 1028.53 1028.38 1028.20 1028.02 1027.84 1027.65 1027.46 1027.27 1027.07 1026.86 1026.62 1026.36 1026.06 1025.72 1025.34 1024.91 1024.43 1023.90 1023.33 1022.73 1022.10 1021.45 1020.80 1020.17 1019.56 1019.00 1018.50 1018.06 1017.69 1017.39 1017.14
1027.54 1027.69 1027.86 1028.03 1028.20 1028.35 1028.48 1028.58 1028.63 1028.65 1028.64 1028.59 1028.50 1028.40 1028.28 1028.14 1028.00 1027.85 1027.69 1027.51 1027.32 1027.10 1026.85 1026.57 1026.25 1025.89 1025.49 1025.04 1024.54 1024.00 1023.42 1022.82 1022.19 1021.55 1020.92 1020.31 1019.74 1019.21 1018.74 1018.34 1018.00 1017.73 1017.51
1027.34 1027.46 1027.60 1027.76 1027.92 1028.07 1028.21 1028.32 1028.41 1028.46 1028.49 1028.48 1028.45 1028.40 1028.32 1028.23 1028.12 1028.00 1027.85 1027.69 1027.49 1027.27 1027.01 1026.71 1026.37 1025.99 1025.57 1025.10 1024.59 1024.04 1023.46 1022.85 1022.24 1021.62 1021.01 1020.44 1019.90 1019.41 1018.98 1018.62 1018.32 1018.08 1017.89
1027.12 1027.22 1027.34 1027.48 1027.64 1027.80 1027.95 1028.08 1028.20 1028.29 1028.35 1028.39 1028.40 1028.39 1028.35 1028.29 1028.22 1028.11 1027.98 1027.83 1027.64 1027.41 1027.14 1026.83 1026.48 1026.08 1025.64 1025.16 1024.64 1024.08 1023.50 1022.91 1022.30 1021.71 1021.13 1020.58 1020.08 1019.63 1019.24 1018.91 1018.65 1018.43 1018.27
Thickness
5626 5623 5619 5614 5611 5607 5604 5598 5593 5589 5585 5581 5578 5574 5569 5566 5562 5559 5554 5550 5546 5542 5538 5534 5530 5526 5522 5518 5514 5510 5506 5502 5500 5498 5495 5493 5491 5491 5490 5489 5488 5487 5486
5606 5604 5600 5597 5594 5589 5584 5579 5576 5572 5569 5565 5560 5556 5552 5548 5544 5541 5537 5532 5528 5524 5520 5516 5512 5509 5505 5501 5496 5492 5488 5483 5481 5480 5478 5476 5475 5474 5474 5473 5472 5472 5471
5587 5585 5582 5579 5576 5571 5566 5562 5559 5556 5552 5548 5543 5539 5535 5531 5527 5523 5519 5514 5510 5506 5502 5498 5495 5491 5488 5484 5480 5476 5472 5468 5464 5462 5461 5459 5459 5458 5459 5458 5457 5456 5456
5570 5567 5564 5560 5557 5553 5550 5546 5542 5539 5535 5531 5526 5522 5518 5514 5510 5505 5501 5497 5493 5488 5485 5482 5479 5476 5472 5468 5465 5461 5457 5454 5450 5447 5446 5445 5444 5444 5443 5444 5445 5443 5443
5554 5550 5546 5544 5541 5538 5534 5531 5527 5524 5520 5516 5511 5507 5503 5498 5493 5488 5484 5480 5475 5471 5468 5465 5463 5461 5458 5455 5452 5448 5444 5441 5438 5436 5435 5434 5434 5433 5432 5431 5431 5432 5433
5539 5535 5532 5529 5526 5523 5519 5516 5512 5509 5505 5500 5496 5492 5487 5482 5477 5473 5468 5463 5459 5455 5452 5450 5448 5446 5444 5441 5438 5436 5434 5431 5429 5426 5425 5424 5425 5424 5422 5421 5422 5424 5427
5525 5522 5519 5516 5513 5509 5506 5502 5498 5494 5490 5485 5481 5477 5472 5467 5462 5458 5453 5448 5444 5440 5437 5435 5434 5433 5430 5428 5427 5426 5425 5423 5421 5419 5418 5418 5419 5419 5417 5417 5418 5418 5420
5513 5510 5506 5504 5500 5496 5493 5489 5485 5481 5476 5472 5467 5463 5458 5453 5448 5443 5439 5435 5431 5428 5426 5424 5423 5422 5421 5419 5418 5419 5419 5419 5417 5416 5415 5415 5415 5415 5414 5414 5414 5415 5416
5501 5498 5495 5493 5489 5485 5481 5476 5472 5468 5463 5459 5454 5450 5445 5439 5435 5430 5426 5422 5420 5418 5416 5415 5415 5414 5414 5412 5413 5413 5414 5416 5416 5415 5414 5414 5415 5414 5413 5413 5413 5413 5415
5490 5488 5485 5482 5479 5474 5470 5465 5461 5456 5452 5448 5443 5438 5433 5428 5423 5419 5416 5412 5410 5409 5409 5410 5409 5408 5409 5409 5409 5409 5410 5413 5413 5414 5414 5415 5415 5415 5414 5412 5412 5411 5411
5482 5479 5476 5472 5469 5465 5460 5455 5451 5446 5441 5437 5432 5427 5422 5418 5415 5412 5408 5405 5403 5403 5403 5404 5405 5405 5406 5408 5408 5408 5408 5409 5410 5412 5413 5414 5415 5414 5414 5412 5410 5408 5408
5474 5471 5467 5464 5461 5457 5451 5446 5441 5437 5432 5427 5423 5419 5415 5411 5409 5406 5403 5401 5399 5398 5399 5400 5402 5404 5406 5408 5409 5409 5410 5410 5411 5412 5413 5414 5413 5413 5413 5411 5410 5409 5407
5466 5462 5459 5456 5452 5448 5444 5439 5434 5429 5425 5420 5416 5413 5409 5407 5404 5402 5401 5400 5399 5398 5399 5400 5402 5405 5407 5409 5410 5410 5411 5412 5412 5413 5413 5413 5412 5411 5411 5410 5410 5409 5408
5459 5455 5452 5448 5445 5440 5437 5432 5428 5424 5419 5416 5412 5408 5406 5404 5403 5401 5400 5400 5400 5400 5401 5403 5405 5407 5408 5410 5411 5412 5412 5412 5412 5412 5412 5412 5412 5411 5411 5409 5408 5407 5407
5453 5449 5446 5442 5438 5434 5430 5425 5422 5419 5415 5412 5409 5405 5404 5403 5401 5399 5398 5399 5400 5400 5402 5405 5406 5407 5409 5410 5411 5412 5413 5414 5413 5413 5412 5412 5412 5411 5410 5409 5407 5406 5406
5448 5444 5440 5436 5432 5428 5424 5421 5418 5415 5413 5410 5407 5404 5403 5401 5401 5401 5402 5402 5402 5403 5404 5404 5405 5406 5407 5408 5409 5412 5413 5413 5413 5413 5413 5412 5412 5411 5410 5410 5408 5407 5406
5444 5440 5436 5432 5429 5425 5421 5418 5416 5413 5411 5409 5407 5405 5404 5403 5403 5403 5404 5405 5405 5405 5405 5405 5405 5406 5406 5408 5409 5411 5412 5412 5412 5413 5413 5413 5412 5412 5411 5411 5410 5409 5408
5441 5438 5434 5430 5426 5423 5419 5416 5413 5411 5409 5407 5406 5406 5405 5405 5405 5405 5405 5407 5407 5406 5405 5405 5405 5406 5407 5408 5410 5411 5412 5413 5414 5414 5414 5414 5413 5413 5413 5412 5411 5410 5409
5439 5436 5432 5428 5425 5421 5418 5415 5412 5410 5408 5406 5406 5406 5406 5406 5406 5406 5406 5406 5405 5406 5406 5406 5406 5407 5408 5409 5410 5411 5412 5413 5414 5414 5415 5415 5414 5414 5414 5414 5413 5411 5410
5437 5435 5431 5427 5424 5421 5418 5415 5412 5410 5408 5407 5406 5406 5406 5406 5406 5406 5406 5406 5406 5406 5406 5407 5407 5408 5409 5409 5410 5412 5413 5414 5414 5415 5415 5415 5415 5415 5415 5415 5415 5414 5413
5437 5434 5431 5427 5424 5421 5418 5415 5412 5411 5409 5408 5407 5406 5406 5406 5406 5406 5406 5406 5406 5406 5407 5407 5408 5409 5409 5410 5411 5412 5413 5414 5414 5414 5415 5415 5416 5417 5417 5417 5416 5416 5415
5436 5434 5431 5428 5425 5422 5418 5416 5414 5412 5410 5409 5408 5408 5408 5407 5407 5407 5407 5407 5407 5406 5407 5407 5408 5408 5409 5409 5410 5411 5413 5414 5415 5414 5415 5416 5417 5418 5419 5419 5418 5417 5417
5437 5434 5431 5428 5425 5422 5419 5417 5415 5413 5412 5410 5410 5409 5409 5408 5408 5408 5408 5408 5407 5407 5408 5408 5409 5410 5410 5411 5411 5412 5413 5414 5414 5414 5415 5417 5419 5420 5420 5420 5419 5419 5417
5438 5436 5433 5429 5426 5423 5421 5418 5416 5415 5413 5412 5411 5410 5410 5409 5409 5409 5409 5408 5408 5409 5409 5409 5410 5410 5412 5413 5414 5415 5415 5416 5417 5418 5419 5419 5420 5421 5422 5421 5420 5419 5418
5439 5437 5434 5431 5428 5425 5422 5420 5418 5416 5415 5414 5413 5412 5411 5411 5410 5410 5410 5409 5409 5410 5410 5410 5411 5412 5413 5414 5416 5417 5419 5421 5422 5422 5423 5422 5423 5423 5422 5422 5421 5420 5419
5441 5439 5435 5432 5429 5426 5424 5422 5420 5419 5417 5416 5414 5414 5413 5412 5412 5411 5411 5410 5410 5410 5411 5411 5412 5413 5414 5416 5417 5419 5422 5424 5425 5425 5425 5425 5425 5424 5424 5423 5422 5420 5419